Tracking 22124 objects as of 25-Jan-2021
HD Live streaming from Space Station
objects crossing your sky now

SBS 3

Track SBS 3 now!
SBS 3 is classified as:


NORAD ID: 13651
Int'l Code: 1982-110B
Perigee: 35,845.3 km
Apogee: 35,930.0 km
Inclination: 14.5 °
Period: 1,440.9 minutes
Semi major axis: 42258 km
RCS: 15.8489 m2 (large)
Launch date: November 11, 1982
Source: United States (US)
Launch site: AIR FORCE EASTERN TEST RANGE (AFETR)
aabbcc
Your satellite tracking list
Your tracking list is empty




NASA's NSSDC Master Catalog

Two Line Element Set (TLE):
1 13651U 82110B   21024.64314531 -.00000082  00000-0  00000-0 0  9995
2 13651  14.5022 349.7211 0010021  49.1850 315.9056  0.99937907 26864
Source of the keplerian elements: AFSPC